timestamp,surface_pressure_avg,surface_temp_avg,battery_voltage,lat,long
2023-10-19 00:09:01+00:00,283.1564,10.85,11.46,47.84626,-54.09684
2023-10-19 00:19:01+00:00,288.2881,10.8,11.46,47.84626,-54.09684
2023-10-19 00:29:01+00:00,291.803,10.8,11.46,47.84626,-54.09684
2023-10-19 00:39:01+00:00,296.5697,10.8,11.46,47.84626,-54.09684
2023-10-19 00:49:01+00:00,309.1447,10.79,11.46,47.84626,-54.09684
2023-10-19 00:59:01+00:00,314.9747,10.7,11.46,47.84626,-54.09684
2023-10-19 01:09:01+00:00,319.5431,10.66,11.46,47.84626,-54.09684
2023-10-19 01:19:01+00:00,322.073,10.64,11.46,47.84626,-54.09684
2023-10-19 01:29:01+00:00,322.878,10.68,11.46,47.84626,-54.09684
2023-10-19 01:39:01+00:00,324.4178,10.7,11.46,47.84626,-54.09684
2023-10-19 01:49:01+00:00,326.3964,10.75,11.46,47.84626,-54.09684
2023-10-19 01:59:01+00:00,328.3730000000001,10.8,11.46,47.84626,-54.09684
2023-10-19 02:09:01+00:00,323.2297,10.8,11.46,47.84626,-54.09684
2023-10-19 02:19:00+00:00,321.3297,10.8,11.46,47.84626,-54.09684
2023-10-19 02:29:00+00:00,319.8015,10.8,11.46,47.84626,-54.09684
2023-10-19 02:39:00+00:00,316.9097,10.8,11.46,47.84626,-54.09684
2023-10-19 02:49:00+00:00,319.1678,10.8,11.46,47.84626,-54.09684
2023-10-19 02:59:00+00:00,316.8546,10.82,11.46,47.84626,-54.09684
2023-10-19 03:09:00+00:00,307.7947,10.8,11.46,47.84626,-54.09684
2023-10-19 03:19:00+00:00,306.5897,10.8,11.37,47.84626,-54.09684
2023-10-19 03:29:00+00:00,312.6662,10.8,11.37,47.84626,-54.09684
2023-10-19 03:39:00+00:00,307.6097,10.8,11.37,47.84626,-54.09684
2023-10-19 03:49:00+00:00,299.9847,10.8,11.37,47.84626,-54.09684
2023-10-19 03:59:00+00:00,303.718,10.83,11.37,47.84626,-54.09684
2023-10-19 04:09:00+00:00,303.7813,10.88,11.37,47.84626,-54.09684
2023-10-19 04:19:00+00:00,296.0897,10.87,11.37,47.84626,-54.09684
2023-10-19 04:29:00+00:00,287.5714,10.83,11.37,47.84626,-54.09684
2023-10-19 04:39:00+00:00,283.7114,10.84,11.37,47.84626,-54.09684
2023-10-19 04:49:00+00:00,276.8681,10.87,11.37,47.84626,-54.09684
2023-10-19 04:59:00+00:00,269.8264,10.86,11.37,47.84626,-54.09684
2023-10-19 05:09:00+00:00,263.8797,10.83,11.37,47.84626,-54.09684
2023-10-19 05:19:00+00:00,259.4397,10.8,11.37,47.84626,-54.09684
2023-10-19 05:29:00+00:00,253.7964,10.8,11.37,47.84626,-54.09684
2023-10-19 05:39:00+00:00,243.0431,10.8,11.37,47.84626,-54.09684
2023-10-19 05:49:00+00:00,234.8448,10.77,11.37,47.84626,-54.09684
2023-10-19 05:59:00+00:00,227.4431,10.76,11.37,47.84626,-54.09684
2023-10-19 06:09:00+00:00,222.0314,10.71,11.37,47.84626,-54.09684
2023-10-19 06:19:00+00:00,212.9581,10.7,11.37,47.84626,-54.09684
2023-10-19 06:29:00+00:00,200.9331,10.58,11.37,47.84626,-54.09684
2023-10-19 06:39:00+00:00,194.3065,10.39,11.37,47.84626,-54.09684
2023-10-19 06:49:00+00:00,190.3531,10.4,11.37,47.84626,-54.09684
2023-10-19 06:59:00+00:00,182.9865,10.4,11.37,47.84626,-54.09684
2023-10-19 07:09:00+00:00,181.0598,10.3,11.37,47.84626,-54.09684
2023-10-19 07:19:00+00:00,185.2565,10.29,11.37,47.84626,-54.09684
2023-10-19 07:29:00+00:00,182.7431,10.2,11.37,47.84626,-54.09684
2023-10-19 07:39:00+00:00,182.1382,10.22,11.37,47.84626,-54.09684
2023-10-19 07:49:00+00:00,186.9848,10.62,11.37,47.84626,-54.09684
2023-10-19 07:59:00+00:00,187.3748,10.8,11.37,47.84626,-54.09684
2023-10-19 08:09:00+00:00,185.1681,10.83,11.37,47.84626,-54.09684
2023-10-19 08:19:01+00:00,190.0748,10.88,11.37,47.84626,-54.09684
2023-10-19 08:29:01+00:00,191.1248,10.89,11.37,47.84626,-54.09684
2023-10-19 08:39:01+00:00,187.5131,10.87,11.37,47.84626,-54.09684
2023-10-19 08:49:01+00:00,194.2614,10.85,11.37,47.84626,-54.09684
2023-10-19 08:59:01+00:00,202.3681,10.86,11.37,47.84626,-54.09684
2023-10-19 09:09:01+00:00,205.6165,10.85,11.37,47.84626,-54.09684
2023-10-19 09:19:00+00:00,213.0215,10.84,11.37,47.84626,-54.09684
2023-10-19 09:29:00+00:00,220.5898,10.85,11.37,47.84626,-54.09684
2023-10-19 09:39:00+00:00,224.1698,10.86,11.37,47.84626,-54.09684
2023-10-19 09:49:00+00:00,225.9381,10.85,11.37,47.84626,-54.09684
2023-10-19 09:59:00+00:00,227.7814,10.84,11.37,47.84626,-54.09684
2023-10-19 10:09:00+00:00,231.7397,10.84,11.37,47.84626,-54.09684
2023-10-19 10:19:00+00:00,238.3065,10.85,11.37,47.84626,-54.09684
2023-10-19 10:29:00+00:00,243.8564,10.87,11.37,47.84626,-54.09684
2023-10-19 10:39:00+00:00,248.5398,10.88,11.37,47.84626,-54.09684
2023-10-19 10:49:00+00:00,255.1414,10.87,11.37,47.84626,-54.09684
2023-10-19 10:59:00+00:00,257.8464,10.87,11.37,47.84626,-54.09684
2023-10-19 11:09:00+00:00,261.1397,10.88,11.37,47.84626,-54.09684
2023-10-19 11:19:01+00:00,266.4248,10.89,11.53,47.84626,-54.09684
2023-10-19 11:29:01+00:00,276.3564,10.9,11.53,47.84626,-54.09684
2023-10-19 11:39:01+00:00,281.2264,10.91,11.53,47.84626,-54.09684
2023-10-19 11:49:01+00:00,284.108,10.97,11.53,47.84626,-54.09684
2023-10-19 11:59:01+00:00,289.4597,10.99,11.53,47.84626,-54.09684
2023-10-19 12:09:01+00:00,299.9764,11.0,11.53,47.84626,-54.09684
2023-10-19 12:19:00+00:00,306.6196,11.0,11.93,47.84626,-54.09684
2023-10-19 12:29:00+00:00,310.0046,11.06,11.93,47.84626,-54.09684
2023-10-19 12:39:00+00:00,316.4847,11.07,11.93,47.84626,-54.09684
2023-10-19 12:49:00+00:00,327.8830000000001,11.07,11.93,47.84626,-54.09684
2023-10-19 12:59:00+00:00,331.17800000000005,11.05,11.93,47.84626,-54.09684
2023-10-19 13:09:00+00:00,334.6996,11.04,11.93,47.84626,-54.09684
2023-10-19 13:19:00+00:00,339.983,11.06,12.01,47.84626,-54.09684
2023-10-19 13:29:00+00:00,344.5846,11.06,12.01,47.84626,-54.09684
2023-10-19 13:39:00+00:00,345.9363,11.08,12.01,47.84626,-54.09684
2023-10-19 13:49:00+00:00,349.3713,11.08,12.01,47.84626,-54.09684
2023-10-19 13:59:00+00:00,358.2395,11.08,12.01,47.84626,-54.09684
2023-10-19 14:09:00+00:00,361.5079,11.08,12.01,47.84626,-54.09684
2023-10-19 14:19:00+00:00,359.8163,11.08,12.01,47.84626,-54.09684
2023-10-19 14:29:00+00:00,358.0529,11.09,12.01,47.84626,-54.09684
2023-10-19 14:39:00+00:00,358.2029,11.06,12.01,47.84626,-54.09684
2023-10-19 14:49:00+00:00,360.3797,11.09,12.01,47.84626,-54.09684
2023-10-19 14:59:00+00:00,353.3863,11.1,12.01,47.84626,-54.09684
2023-10-19 15:09:00+00:00,353.6364,11.1,12.01,47.84626,-54.09684
2023-10-19 15:19:00+00:00,354.7729,11.09,11.86,47.84626,-54.09684
2023-10-19 15:29:00+00:00,353.528,11.0,11.86,47.84626,-54.09684
2023-10-19 15:39:00+00:00,347.5446,11.0,11.86,47.84626,-54.09684
2023-10-19 15:49:00+00:00,341.3879,11.0,11.86,47.84626,-54.09684
2023-10-19 15:59:00+00:00,340.4996,11.01,11.86,47.84626,-54.09684
2023-10-19 16:09:00+00:00,340.8897,11.03,11.86,47.84626,-54.09684
2023-10-19 16:19:01+00:00,333.4331,11.04,11.77,47.84626,-54.09684
2023-10-19 16:29:01+00:00,326.8147,11.07,11.77,47.84626,-54.09684
2023-10-19 16:39:01+00:00,324.7448,11.09,11.77,47.84626,-54.09684
2023-10-19 16:49:01+00:00,321.4012,11.1,11.77,47.84626,-54.09684
2023-10-19 16:59:01+00:00,312.1397,11.09,11.77,47.84626,-54.09684
2023-10-19 17:09:01+00:00,305.1746,11.1,11.77,47.84626,-54.09684
2023-10-19 17:19:00+00:00,298.1064,11.1,11.86,47.84626,-54.09684
2023-10-19 17:29:00+00:00,287.683,11.1,11.86,47.84626,-54.09684
2023-10-19 17:39:00+00:00,282.3331,11.1,11.86,47.84626,-54.09684
2023-10-19 17:49:00+00:00,279.2347,11.1,11.86,47.84626,-54.09684
2023-10-19 17:59:00+00:00,272.6014,11.1,11.86,47.84626,-54.09684
2023-10-19 18:09:00+00:00,260.3814,11.1,11.86,47.84626,-54.09684
2023-10-19 18:19:00+00:00,252.0264,11.1,11.7,47.84626,-54.09684
2023-10-19 18:29:00+00:00,246.0331,11.15,11.7,47.84626,-54.09684
2023-10-19 18:39:00+00:00,238.5081,11.19,11.7,47.84626,-54.09684
2023-10-19 18:49:00+00:00,228.1464,11.2,11.7,47.84626,-54.09684
2023-10-19 18:59:00+00:00,220.9998,11.2,11.7,47.84626,-54.09684
2023-10-19 19:09:00+00:00,213.8381,11.2,11.7,47.84626,-54.09684
2023-10-19 19:19:01+00:00,206.2848,11.2,11.7,47.84626,-54.09684
2023-10-19 19:29:01+00:00,202.2231,11.21,11.7,47.84626,-54.09684
2023-10-19 19:39:01+00:00,201.5281,11.2,11.7,47.84626,-54.09684
2023-10-19 19:49:01+00:00,199.4065,11.2,11.7,47.84626,-54.09684
2023-10-19 19:59:01+00:00,198.1081,11.19,11.7,47.84626,-54.09684
2023-10-19 20:09:01+00:00,196.9931,11.1,11.7,47.84626,-54.09684
2023-10-19 20:19:00+00:00,194.1747,11.1,11.61,47.84626,-54.09684
2023-10-19 20:29:00+00:00,196.7614,11.1,11.61,47.84626,-54.09684
2023-10-19 20:39:00+00:00,201.4681,11.1,11.61,47.84626,-54.09684
2023-10-19 20:49:00+00:00,203.4498,11.1,11.61,47.84626,-54.09684
2023-10-19 20:59:00+00:00,204.9564,11.1,11.61,47.84626,-54.09684
2023-10-19 21:09:00+00:00,211.1248,11.2,11.61,47.84626,-54.09684
2023-10-19 21:19:00+00:00,215.2681,11.27,11.61,47.84626,-54.09684
2023-10-19 21:29:00+00:00,215.0015,11.3,11.61,47.84626,-54.09684
2023-10-19 21:39:00+00:00,219.1498,11.3,11.61,47.84626,-54.09684
2023-10-19 21:49:00+00:00,227.4881,11.38,11.61,47.84626,-54.09684
2023-10-19 21:59:00+00:00,229.1397,11.38,11.61,47.84626,-54.09684
2023-10-19 22:09:00+00:00,226.2564,11.3,11.61,47.84626,-54.09684
2023-10-19 22:19:00+00:00,232.5697,11.2,11.61,47.84626,-54.09684
2023-10-19 22:29:00+00:00,242.5598,11.1,11.61,47.84626,-54.09684
2023-10-19 22:39:00+00:00,242.0881,11.1,11.61,47.84626,-54.09684
2023-10-19 22:49:00+00:00,242.0847,11.01,11.61,47.84626,-54.09684
2023-10-19 22:59:00+00:00,247.5798,11.1,11.61,47.84626,-54.09684
2023-10-19 23:09:00+00:00,250.2131,11.1,11.61,47.84626,-54.09684
2023-10-19 23:19:00+00:00,248.7914,11.0,11.61,47.84626,-54.09684
2023-10-19 23:29:00+00:00,254.4464,11.07,11.61,47.84626,-54.09684
2023-10-19 23:39:00+00:00,260.0231,11.1,11.61,47.84626,-54.09684
2023-10-19 23:49:00+00:00,256.4181,11.14,11.61,47.84626,-54.09684
2023-10-19 23:59:00+00:00,258.1198,11.17,11.61,47.84626,-54.09684
